When you browse on this site, cookies collect data to enhance your experience and personalize the content and advertising you see.
Visit our Privacy Policy to learn more. By continuing to use the site, you agree to this use of cookies and data.
  • In Lithuania
  • List of Countries
  • For 7 days
  • Water Temperature
  • Satellite Maps
  • Weather Map
  • Weather Widgets
  • user-avatar
    Login

    Hourly Weather Zielenice

    Today, 19 April, Friday

    Time Temperature Precipitation Wind Pressure Humidity
    00:00 +8°C° 0 mm 0 mps 758 mmHg 72%
    01:00 +8°C° 0 mm 0 mps 758 mmHg 74%
    02:00 +7°C° 0 mm 0 mps 758 mmHg 75%
    03:00 +7°C° 0 mm 0 mps 758 mmHg 75%
    04:00 +7°C° 0 mm 0 mps 758 mmHg 76%
    05:00 +8°C° 0 mm 0 mps 759 mmHg 73%
    06:00 +9°C° 0 mm 0 mps 759 mmHg 70%
    07:00 +10°C° 0 mm 0 mps 759 mmHg 67%
    08:00 +13°C° 0 mm 1 mps 759 mmHg 62%
    09:00 +15°C° 0 mm 1 mps 759 mmHg 57%
    10:00 +17°C° 0 mm 2 mps 759 mmHg 52%
    11:00 +18°C° 0 mm 2 mps 759 mmHg 49%
    12:00 +19°C° 0 mm 3 mps 759 mmHg 47%
    13:00 +20°C° 0 mm 3 mps 759 mmHg 44%
    14:00 +20°C° 0 mm 3 mps 758 mmHg 45%
    15:00 +20°C° 0 mm 3 mps 758 mmHg 45%
    16:00 +20°C° 0 mm 3 mps 758 mmHg 46%
    17:00 +18°C° 0 mm 3 mps 758 mmHg 52%
    18:00 +16°C° 0 mm 2 mps 758 mmHg 58%
    19:00 +14°C° 0 mm 2 mps 758 mmHg 64%
    20:00 +13°C° 0 mm 1 mps 758 mmHg 65%
    21:00 +11°C° 0 mm 1 mps 758 mmHg 67%
    22:00 +10°C° 0 mm 1 mps 758 mmHg 68%
    23:00 +10°C° 0 mm 1 mps 758 mmHg 68%

    Tomorrow, 20 April, Saturday

    Time Temperature Precipitation Wind Pressure Humidity
    00:00 +8°C° 0 mm 0 mps 758 mmHg 69%
    01:00 +8°C° 0 mm 0 mps 758 mmHg 69%
    02:00 +7°C° 0 mm 0 mps 758 mmHg 70%
    03:00 +7°C° 0 mm 0 mps 758 mmHg 72%
    04:00 +7°C° 0 mm 0 mps 758 mmHg 73%
    05:00 +8°C° 0 mm 0 mps 758 mmHg 70%
    06:00 +9°C° 0 mm 0 mps 758 mmHg 67%
    07:00 +11°C° 0 mm 0 mps 758 mmHg 64%
    08:00 +14°C° 0 mm 1 mps 758 mmHg 58%
    09:00 +16°C° 0 mm 1 mps 757 mmHg 53%
    10:00 +19°C° 0 mm 1 mps 757 mmHg 47%
    11:00 +19°C° 0 mm 1 mps 757 mmHg 45%
    12:00 +20°C° 0 mm 1 mps 756 mmHg 42%
    13:00 +19°C° 0 mm 2 mps 756 mmHg 40%
    14:00 +19°C° 0 mm 2 mps 756 mmHg 41%
    15:00 +19°C° 0 mm 2 mps 755 mmHg 43%
    16:00 +19°C° 0 mm 2 mps 755 mmHg 44%
    17:00 +17°C° 0 mm 2 mps 755 mmHg 50%
    18:00 +15°C° 0 mm 2 mps 754 mmHg 56%
    19:00 +13°C° 0 mm 2 mps 754 mmHg 62%
    20:00 +12°C° 0 mm 2 mps 754 mmHg 60%
    21:00 +11°C° 0 mm 1 mps 754 mmHg 59%
    22:00 +9°C° 0 mm 1 mps 754 mmHg 57%
    23:00 +9°C° 0 mm 1 mps 754 mmHg 58%

    Day after tomorrow, 21 April, Sunday

    Time Temperature Precipitation Wind Pressure Humidity
    00:00 +7°C° 0 mm 0 mps 754 mmHg 59%
    01:00 +7°C° 0 mm 0 mps 754 mmHg 59%
    02:00 +6°C° 0 mm 0 mps 754 mmHg 63%
    03:00 +6°C° 0 mm 0 mps 753 mmHg 66%
    04:00 +5°C° 0 mm 0 mps 753 mmHg 70%
    05:00 +7°C° 0 mm 0 mps 753 mmHg 68%
    06:00 +9°C° 0 mm 1 mps 753 mmHg 66%
    07:00 +10°C° 0 mm 1 mps 753 mmHg 65%
    08:00 +12°C° 0 mm 1 mps 753 mmHg 61%
    09:00 +14°C° 0 mm 2 mps 753 mmHg 57%
    10:00 +15°C° 0 mm 2 mps 752 mmHg 53%
    11:00 +16°C° 0 mm 2 mps 752 mmHg 50%
    12:00 +17°C° 0 mm 2 mps 752 mmHg 46%
    13:00 +17°C° 0 mm 2 mps 751 mmHg 43%
    14:00 +17°C° 0 mm 2 mps 751 mmHg 43%
    15:00 +17°C° 0 mm 2 mps 750 mmHg 43%
    16:00 +18°C° 0 mm 2 mps 750 mmHg 43%
    17:00 +16°C° 0 mm 2 mps 750 mmHg 48%
    18:00 +14°C° 0 mm 1 mps 749 mmHg 54%
    19:00 +12°C° 0 mm 1 mps 749 mmHg 59%
    20:00 +11°C° 0 mm 1 mps 749 mmHg 61%
    21:00 +10°C° 0 mm 1 mps 749 mmHg 63%
    22:00 +9°C° 0 mm 1 mps 749 mmHg 64%
    23:00 +9°C° 0 mm 1 mps 749 mmHg 65%

    22 April, Monday

    Time Temperature Precipitation Wind Pressure Humidity
    00:00 +9°C° 0 mm 1 mps 749 mmHg 66%
    01:00 +8°C° 0 mm 1 mps 749 mmHg 67%
    02:00 +8°C° 0 mm 1 mps 748 mmHg 68%
    03:00 +7°C° 0 mm 1 mps 748 mmHg 69%
    04:00 +6°C° 0 mm 0 mps 747 mmHg 70%
    05:00 +8°C° 0 mm 1 mps 747 mmHg 68%
    06:00 +10°C° 0 mm 1 mps 747 mmHg 65%
    07:00 +11°C° 0 mm 1 mps 747 mmHg 62%
    08:00 +13°C° 0 mm 2 mps 747 mmHg 59%
    09:00 +15°C° 0 mm 2 mps 747 mmHg 55%
    10:00 +16°C° 0 mm 3 mps 747 mmHg 51%
    11:00 +17°C° 0.1 mm 3 mps 746 mmHg 49%
    12:00 +18°C° 0.1 mm 3 mps 746 mmHg 48%
    13:00 +19°C° 0.1 mm 4 mps 745 mmHg 46%
    14:00 +18°C° 0.8 mm 4 mps 745 mmHg 55%
    15:00 +17°C° 0.8 mm 4 mps 744 mmHg 63%
    16:00 +15°C° 0.8 mm 5 mps 744 mmHg 71%
    17:00 +14°C° 0.5 mm 5 mps 744 mmHg 75%
    18:00 +13°C° 0.5 mm 5 mps 743 mmHg 79%
    19:00 +12°C° 0.5 mm 5 mps 743 mmHg 83%
    20:00 +12°C° 0.1 mm 5 mps 743 mmHg 81%
    21:00 +10°C° 0.1 mm 5 mps 743 mmHg 78%
    22:00 +10°C° 0.1 mm 6 mps 743 mmHg 76%
    23:00 +10°C° 0 mm 6 mps 742 mmHg 75%

    23 April, Tuesday

    Time Temperature Precipitation Wind Pressure Humidity
    00:00 +10°C° 0 mm 6 mps 742 mmHg 75%
    01:00 +10°C° 0 mm 7 mps 742 mmHg 74%
    02:00 +10°C° 0 mm 7 mps 742 mmHg 75%
    03:00 +10°C° 0 mm 7 mps 742 mmHg 75%
    04:00 +11°C° 0 mm 7 mps 742 mmHg 75%
    05:00 +11°C° 0 mm 7 mps 742 mmHg 73%
    06:00 +11°C° 0 mm 7 mps 742 mmHg 71%
    07:00 +12°C° 0 mm 7 mps 742 mmHg 70%
    08:00 +13°C° 0 mm 8 mps 742 mmHg 66%
    09:00 +15°C° 0 mm 9 mps 742 mmHg 62%
    10:00 +17°C° 0 mm 9 mps 743 mmHg 59%
    11:00 +16°C° 0.1 mm 9 mps 743 mmHg 62%
    12:00 +15°C° 0.1 mm 9 mps 743 mmHg 66%
    13:00 +15°C° 0.1 mm 8 mps 743 mmHg 69%
    14:00 +15°C° 0.1 mm 8 mps 743 mmHg 68%
    15:00 +15°C° 0.1 mm 7 mps 743 mmHg 67%
    16:00 +15°C° 0.1 mm 7 mps 743 mmHg 66%
    17:00 +14°C° 0 mm 6 mps 743 mmHg 68%
    18:00 +13°C° 0 mm 6 mps 743 mmHg 71%
    19:00 +12°C° 0 mm 5 mps 743 mmHg 73%
    20:00 +12°C° 0 mm 5 mps 743 mmHg 74%
    21:00 +12°C° 0 mm 5 mps 743 mmHg 75%
    22:00 +11°C° 0 mm 4 mps 743 mmHg 76%
    23:00 +11°C° 0 mm 4 mps 743 mmHg 76%

    24 April, Wednesday

    Time Temperature Precipitation Wind Pressure Humidity
    00:00 +11°C° 0 mm 4 mps 743 mmHg 77%
    01:00 +10°C° 0 mm 3 mps 743 mmHg 78%
    02:00 +10°C° 0 mm 3 mps 744 mmHg 80%
    03:00 +10°C° 0 mm 3 mps 744 mmHg 82%
    04:00 +9°C° 0 mm 3 mps 744 mmHg 84%
    05:00 +11°C° 0 mm 3 mps 744 mmHg 82%
    06:00 +12°C° 0 mm 4 mps 745 mmHg 79%
    07:00 +13°C° 0 mm 4 mps 745 mmHg 76%
    08:00 +14°C° 0 mm 4 mps 745 mmHg 72%
    09:00 +17°C° 0 mm 4 mps 745 mmHg 67%
    10:00 +18°C° 0 mm 4 mps 746 mmHg 63%
    11:00 +19°C° 0 mm 4 mps 746 mmHg 62%
    12:00 +20°C° 0 mm 4 mps 746 mmHg 61%
    13:00 +20°C° 0 mm 4 mps 746 mmHg 60%
    14:00 +20°C° 0 mm 4 mps 746 mmHg 61%
    15:00 +20°C° 0 mm 4 mps 746 mmHg 61%
    16:00 +20°C° 0 mm 4 mps 746 mmHg 62%
    17:00 +18°C° 0 mm 3 mps 746 mmHg 68%
    18:00 +16°C° 0 mm 3 mps 747 mmHg 75%
    19:00 +15°C° 0 mm 2 mps 747 mmHg 81%
    20:00 +14°C° 0 mm 2 mps 747 mmHg 84%
    21:00 +13°C° 0 mm 2 mps 748 mmHg 87%
    22:00 +12°C° 0 mm 2 mps 748 mmHg 90%
    23:00 +12°C° 0 mm 2 mps 748 mmHg 90%
    Show more